Dewpoint
68 71 74 73 74 74 74 74 74 74 74 74 74 74 73 73 74 73 73 73 74 73 73 73 73 73 73 73 73 73 73 73 73 73 73 74 74 75 75 75 75 74 75
69 72 75 74 74 74 74 74 75 74 74 74 74 73 73 73 74 73 74 74 74 73 73 73 73 73 73 72 72 71 72 73 73 72 72 72 72 73 75 74 75 74 75
70 72 73 75 74 74 74 74 75 75 75 74 74 74 74 74 73 73 73 73 72 72 72 71 72 73 73 73 73 71 71 72 72 72 73 72 72 71 73 73 74 75 75
71 73 73 76 75 74 73 74 75 75 75 75 75 74 74 74 74 74 73 74 73 73 73 73 71 70 72 72 72 73 73 72 72 72 71 70 71 72 71 73 74 74 74
72 73 73 75 75 74 75 75 75 75 74 74 74 74 73 73 72 72 72 72 71 71 72 72 73 73 71 71 72 73 73 72 71 72 66 65 70 70 73 73 73 74 75
72 73 75 75 74 75 75 74 75 74 74 72 71 72 72 72 72 72 71 70 71 71 71 71 73 73 73 73 72 71 71 71 71 69 69 66 67 68 73 73 74 74 75
72 73 73 75 75 75 75 74 73 72 73 73 73 72 72 72 72 72 71 72 72 72 72 73 73 73 73 74 73 73 73 73 70 70 70 69 70 71 74 73 75 75 75
72 73 73 75 75 75 73 73 74 74 73 73 72 72 72 72 71 72 72 72 73 73 74 75 75 74 74 74 74 74 74 74 71 72 72 71 71 73 74 75 75 75 76
72 73 73 73 73 73 74 75 74 73 72 72 73 73 73 73 73 73 73 74 74 74 74 74 74 74 74 74 74 75 75 75 73 73 71 72 73 75 74 76 76 75 75
72 72 72 71 72 73 73 74 73 73 73 73 73 73 74 75 75 75 76 76 74 74 74 74 74 75 76 76 75 75 75 75 73 73 73 72 74 74 74 74 76 76 76
71 71 72 71 72 72 72 72 74 73 73 74 74 75 76 74 73 74 75 76 76 76 76 75 76 77 77 76 76 76 75 74 73 73 72 74 75 74 75 75 75 76 76
69 70 71 71 71 72 70 70 71 71 72 72 73 73 74 73 74 74 73 73 76 77 77 77 77 78 77 75 75 76 75 75 74 71 71 74 76 75 75 76 76 76 75
68 69 69 69 70 70 69 67 69 70 71 72 72 73 71 74 74 72 72 73 73 73 67 70 74 73 71 74 72 71 72 73 74 73 71 75 76 76 76 75 76 75 75
66 67 67 68 68 68 68 67 67 68 71 72 73 70 72 73 72 71 66 66 72 73 71 71 72 73 72 71 72 71 70 70 71 73 73 75 76 76 75 75 73 71 70
64 65 66 66 67 67 67 69 69 70 71 70 73 73 73 70 70 70 66 66 68 71 72 73 73 73 72 72 71 71 71 71 71 72 73 75 76 75 74 70 70 71 71
63 63 65 67 70 69 70 70 73 71 70 71 73 73 72 71 71 69 69 70 72 73 73 73 72 71 71 71 71 71 71 72 72 72 73 73 75 75 73 71 72 72 72
61 63 65 68 69 71 71 71 72 71 68 71 72 73 73 72 67 70 72 73 73 73 72 73 71 70 68 66 66 66 71 72 71 71 72 73 74 74 74 73 72 72 71
63 64 65 68 69 70 71 72 72 72 70 71 71 71 73 72 64 71 73 73 73 71 70 70 69 68 66 65 66 66 68 69 69 70 71 71 71 72 73 73 72 71 71
64 65 66 68 68 69 71 72 73 72 72 71 71 71 72 72 71 73 72 72 72 71 71 70 70 70 65 64 65 64 64 67 67 70 70 69 69 70 70 71 70 69 68
64 65 66 68 68 68 70 71 72 72 72 71 71 71 71 72 72 71 71 71 73 72 71 70 69 69 66 65 62 63 64 67 69 69 69 69 68 67 68 68 67 66 68
64 65 65 66 67 69 70 70 69 69 68 67 70 71 70 71 68 71 71 64 72 71 72 71 71 68 68 66 61 61 63 69 69 68 68 67 67 66 66 68 65 65 67
62 63 64 66 67 69 70 71 71 70 69 71 71 70 69 69 72 71 66 63 69 73 71 71 70 66 66 66 61 59 58 59 64 68 68 68 66 67 67 67 66 65 65
61 62 63 66 66 69 69 70 70 70 68 69 69 68 69 70 71 70 67 64 70 73 71 71 71 68 65 67 62 60 57 57 61 60 64 66 67 67 68 68 67 65 64
61 61 62 66 67 69 70 70 68 66 65 68 68 70 70 69 70 72 70 70 70 73 72 71 71 71 68 66 66 64 64 63 61 59 63 64 65 66 66 66 66 65 65
60 61 62 66 69 69 69 69 68 68 69 68 69 68 70 69 71 70 71 71 73 73 72 72 72 70 71 68 68 66 63 65 64 61 59 61 61 63 64 63 64 64 64
60 61 62 66 68 69 68 68 68 68 67 66 65 66 68 69 68 67 70 71 71 74 73 73 73 72 70 69 70 68 64 63 65 63 61 60 60 61 62 63 62 63 63
Lifted_Index
-1 -2 -3 -3 -4 -4 -4 -4 -4 -3 -3 -3 -3 -3 -3 -3 -3 -3 -3 -3 -3 -3 -3 -3 -3 -4 -4 -5 -5 -4 -4 -4 -4 -4 -5 -5 -5 -6 -6 -6 -7 -7 -7
-1 -2 -3 -4 -4 -4 -4 -4 -4 -4 -3 -3 -3 -3 -3 -3 -3 -3 -3 -3 -3 -3 -3 -3 -4 -4 -4 -4 -4 -4 -4 -4 -5 -5 -5 -5 -5 -5 -6 -6 -6 -7 -7
-2 -3 -4 -4 -4 -4 -4 -4 -4 -4 -4 -4 -3 -3 -3 -3 -3 -3 -3 -3 -3 -3 -3 -3 -4 -4 -4 -5 -4 -4 -4 -4 -5 -5 -4 -4 -4 -5 -5 -6 -6 -6 -6
-3 -3 -4 -4 -4 -4 -4 -4 -4 -4 -4 -4 -4 -3 -3 -3 -3 -3 -3 -3 -3 -4 -4 -4 -4 -4 -4 -4 -4 -4 -4 -4 -5 -5 -4 -3 -4 -4 -5 -5 -6 -6 -6
-3 -4 -4 -4 -4 -4 -4 -4 -4 -4 -4 -3 -3 -3 -3 -3 -3 -3 -3 -3 -3 -4 -4 -4 -5 -5 -4 -4 -4 -4 -4 -4 -4 -4 -3 -2 -3 -4 -5 -5 -6 -6 -6
-3 -4 -4 -4 -4 -3 -3 -3 -3 -3 -3 -3 -2 -2 -3 -3 -3 -3 -3 -3 -3 -3 -4 -4 -5 -5 -5 -5 -5 -5 -4 -4 -4 -4 -3 -2 -2 -4 -5 -5 -6 -6 -6
-3 -3 -4 -4 -3 -3 -3 -3 -3 -3 -3 -2 -2 -2 -2 -2 -3 -3 -3 -3 -3 -3 -4 -5 -5 -5 -5 -5 -5 -5 -5 -5 -5 -4 -4 -3 -3 -4 -5 -6 -6 -6 -7
-3 -3 -3 -3 -3 -3 -3 -3 -3 -3 -3 -2 -2 -2 -2 -3 -3 -3 -3 -4 -4 -4 -5 -5 -5 -6 -6 -6 -6 -6 -6 -6 -6 -5 -5 -5 -5 -5 -6 -7 -7 -7 -7
-2 -2 -2 -3 -3 -3 -3 -3 -3 -3 -2 -2 -2 -3 -3 -3 -4 -4 -4 -4 -4 -5 -5 -5 -6 -6 -6 -6 -6 -7 -7 -7 -7 -7 -6 -6 -6 -6 -7 -7 -8 -8 -8
-2 -2 -2 -2 -2 -3 -3 -3 -3 -2 -2 -3 -3 -3 -4 -4 -4 -5 -5 -5 -5 -5 -6 -6 -6 -6 -7 -7 -7 -7 -7 -7 -7 -7 -7 -7 -7 -7 -7 -7 -7 -8 -8
-1 -1 -1 -1 -2 -2 -2 -2 -2 -2 -2 -3 -3 -4 -4 -4 -4 -5 -5 -5 -6 -6 -7 -7 -7 -7 -7 -7 -7 -7 -8 -8 -8 -7 -7 -7 -7 -7 -7 -7 -7 -8 -8
-0 -0 -0 -1 -1 -2 -2 -1 -2 -2 -2 -2 -3 -3 -4 -4 -4 -4 -4 -5 -5 -6 -6 -6 -6 -7 -7 -7 -7 -7 -7 -8 -7 -7 -6 -7 -8 -8 -8 -8 -8 -8 -8
0 0 0 0 -0 -1 -1 -1 -1 -1 -2 -2 -3 -3 -3 -3 -4 -3 -3 -3 -4 -4 -4 -4 -5 -6 -6 -6 -6 -6 -6 -7 -7 -7 -7 -7 -8 -8 -8 -8 -8 -8 -8
1 1 0 0 -0 -1 -1 -2 -2 -2 -2 -2 -3 -3 -3 -3 -3 -3 -2 -2 -3 -4 -4 -4 -5 -5 -5 -5 -5 -5 -5 -6 -6 -7 -7 -8 -8 -8 -8 -7 -7 -6 -6
1 1 0 -0 -0 -1 -1 -2 -2 -2 -2 -2 -3 -3 -3 -2 -2 -2 -2 -3 -3 -4 -4 -4 -5 -5 -5 -5 -5 -6 -6 -6 -7 -7 -8 -8 -8 -8 -7 -6 -6 -6 -6
1 1 0 -0 -1 -1 -2 -2 -2 -2 -2 -2 -3 -3 -3 -2 -2 -2 -3 -3 -4 -4 -5 -5 -5 -5 -4 -4 -5 -5 -6 -6 -7 -7 -7 -7 -7 -6 -6 -6 -6 -6 -6
1 1 0 -0 -1 -2 -2 -2 -2 -2 -2 -2 -3 -3 -3 -3 -2 -2 -3 -3 -4 -4 -4 -4 -4 -4 -3 -3 -3 -4 -5 -6 -6 -6 -6 -5 -5 -5 -5 -5 -6 -6 -6
2 1 1 -0 -1 -1 -2 -2 -2 -2 -2 -2 -2 -2 -3 -3 -3 -3 -3 -4 -4 -4 -4 -4 -4 -3 -2 -2 -2 -3 -4 -5 -5 -5 -5 -4 -4 -4 -4 -4 -4 -5 -5
2 1 1 0 -0 -1 -2 -2 -2 -2 -2 -2 -2 -2 -3 -3 -3 -3 -4 -4 -4 -4 -4 -3 -3 -2 -2 -1 -1 -1 -2 -3 -4 -4 -4 -3 -3 -3 -3 -3 -3 -3 -3
1 1 1 1 0 -0 -1 -2 -2 -2 -2 -2 -2 -2 -2 -3 -2 -2 -3 -3 -4 -4 -4 -3 -3 -2 -2 -1 -0 -1 -2 -3 -3 -3 -3 -3 -2 -2 -2 -3 -2 -2 -2
1 1 1 1 0 -0 -1 -2 -2 -2 -2 -2 -1 -2 -2 -2 -2 -2 -2 -2 -3 -4 -4 -3 -3 -2 -2 -1 -0 -0 -1 -2 -2 -2 -2 -2 -2 -1 -1 -2 -2 -2 -2
1 1 1 1 0 -0 -1 -2 -2 -2 -2 -2 -2 -2 -1 -1 -2 -2 -2 -2 -3 -4 -4 -4 -3 -3 -2 -2 -1 -0 -0 -0 -0 -1 -1 -2 -2 -2 -1 -1 -1 -1 -1
2 2 1 1 -0 -1 -1 -2 -2 -2 -2 -2 -2 -2 -1 -1 -2 -2 -2 -3 -3 -4 -4 -4 -4 -4 -3 -2 -2 -1 -0 1 1 1 0 -0 -1 -1 -1 -2 -1 -1 -1
2 2 1 1 -0 -1 -2 -2 -2 -2 -2 -2 -2 -2 -2 -1 -2 -2 -2 -3 -4 -4 -4 -4 -5 -5 -4 -3 -2 -2 -0 1 1 1 1 1 -0 -1 -2 -2 -1 -1 -0
2 2 2 1 -0 -1 -2 -1 -1 -1 -1 -1 -1 -2 -2 -2 -2 -2 -3 -3 -4 -4 -4 -4 -5 -5 -4 -3 -3 -2 -1 0 1 1 1 1 -0 -1 -1 -2 -1 0 1
1 1 1 1 -0 -1 -2 -1 -1 -1 -1 -1 -1 -1 -2 -2 -2 -2 -3 -3 -3 -4 -4 -4 -5 -5 -5 -4 -3 -2 -1 -0 0 1 1 1 -0 -1 -1 -1 -1 1 1